DW8004 Weather Reports


time (UTC)temp
C
wind
direction
speed
KPH
gust
KPH
rain 1hr
cm
rain 24hr
cm
rain mn
cm
humidity
%
barometer
mb
20260510141533 12 106 0.0 0.0 0.00 1.35 0.00 86 1011.4
20260510140011 12 214 0.0 0.0 0.00 1.42 0.00 86 1011.4
20260510134608 12 265 0.0 0.0 0.00 1.42 0.00 87 1011.3
20260510133100 11 119 0.0 0.0 0.00 1.42 0.00 88 1011.4
20260510131600 11 38 0.0 0.0 0.00 1.42 0.00 90 1011.8
20260510130016 10 180 0.0 0.0 0.00 1.50 0.00 91 1011.8
20260510124508 11 267 0.0 0.0 0.00 1.50 0.00 94 1011.6
20260510123059 10 267 0.0 0.0 0.00 1.50 0.00 95 1011.5
20260510121543 10 350 0.0 0.0 0.00 1.50 0.00 97 1011.7
20260510120004 8 205 0.0 0.0 0.00 1.50 0.00 97 1011.9
20260510114605 8 205 0.0 0.0 0.00 1.50 0.00 97 1011.9
20260510113100 8 182 0.0 0.0 0.00 1.50 0.00 97 1012.0
20260510111554 8 232 0.0 0.0 0.00 1.50 0.00 97 1011.9
20260510110051 8 324 0.0 0.0 0.00 1.50 0.00 98 1011.5
20260510104558 8 324 0.0 0.0 0.00 1.50 0.00 97 1011.2
20260510103036 8 329 0.0 0.0 0.00 1.50 0.00 98 1011.1
20260510101509 8 283 0.0 0.0 0.00 1.50 0.00 98 1011.1
20260510100101 8 312 0.0 0.0 0.00 1.50 0.00 97 1010.8
20260510094513 8 71 0.0 0.0 0.00 1.50 0.00 98 1010.5
20260510093009 7 71 0.0 0.0 0.00 1.50 0.00 97 1010.6
20260510091508 7 71 0.0 0.0 0.00 1.50 0.00 97 1010.3
20260510090127 7 71 0.0 0.0 0.00 1.50 0.00 97 1010.3
20260510084556 8 71 0.0 0.0 0.00 1.50 0.00 97 1010.3
20260510083031 7 71 0.0 0.0 0.00 1.50 0.00 97 1010.7
20260510081604 8 71 0.0 0.0 0.00 1.50 0.00 97 1010.9
20260510080058 8 69 0.0 0.0 0.00 1.50 0.00 97 1010.9
20260510074557 8 69 0.0 0.0 0.00 1.50 0.00 97 1010.9
20260510073051 8 69 0.0 0.0 0.00 1.50 0.00 97 1011.1
20260510071541 8 69 0.0 0.0 0.00 1.50 0.00 97 1010.9
20260510070044 7 69 0.0 0.0 0.00 1.50 0.00 97 1010.7
20260510064638 7 69 0.0 0.0 0.00 1.50 0.00 97 1010.6
20260510063054 7 69 0.0 0.0 0.00 1.50 0.00 98 1010.8
20260510061542 7 68 0.0 0.0 0.00 1.50 0.00 98 1010.9
20260510060024 7 105 0.0 0.0 0.00 1.50 0.00 98 1011.0
20260510054555 7 237 0.0 0.0 0.00 1.50 0.00 97 1011.0
20260510053100 7 69 0.0 0.0 0.00 1.50 0.00 97 1010.9
20260510051604 7 69 0.0 0.0 0.00 1.50 0.00 97 1011.1
20260510050043 7 69 0.0 0.0 0.00 1.50 0.00 97 1011.2
20260510044532 7 69 0.0 0.0 0.00 1.50 0.00 97 1011.3
20260510043041 7 69 0.0 0.0 0.00 1.50 0.00 97 1011.3
20260510041537 7 69 0.0 0.0 0.00 1.50 0.00 97 1011.4
20260510034530 7 69 0.0 0.0 0.00 1.50 1.50 97 1011.6
20260510033004 7 69 0.0 0.0 0.00 1.50 1.50 97 1011.5
20260510031610 7 69 0.0 0.0 0.00 1.50 1.50 97 1011.5
20260510030100 7 69 0.0 0.0 0.00 1.50 1.50 97 1011.6
20260510024555 7 69 0.0 0.0 0.00 1.50 1.50 97 1011.5
20260510023054 7 69 0.0 0.0 0.00 1.50 1.50 97 1011.5
20260510021557 7 67 0.0 0.0 0.00 1.50 1.50 97 1011.6
20260510020036 7 93 0.0 0.0 0.00 1.50 1.50 96 1011.9
20260510014539 7 93 0.0 0.0 0.00 1.50 1.50 96 1012.0
20260510013023 7 93 0.0 0.0 0.00 1.50 1.50 97 1011.9
20260510011607 7 93 0.0 0.0 0.00 1.50 1.50 96 1011.9
20260510004540 7 93 0.0 0.0 0.00 1.50 1.50 96 1011.5
20260510003021 7 96 0.0 0.0 0.00 1.50 1.50 96 1011.4
20260510001508 7 94 0.0 0.0 0.00 1.50 1.50 96 1011.3
20260510000006 7 94 0.0 0.0 0.00 1.50 1.50 96 1011.0
20260509234533 7 94 0.0 0.0 0.00 1.50 1.50 96 1011.0
20260509233101 7 94 0.0 0.0 0.00 1.50 1.50 96 1010.9
20260509231603 7 105 0.0 0.0 0.00 1.50 1.50 96 1011.0
20260509230031 7 91 0.0 0.0 0.00 1.50 1.50 96 1010.8
20260509224513 7 105 0.0 0.0 0.00 1.50 1.50 96 1010.9
20260509223048 7 127 0.0 0.0 0.00 1.50 1.50 96 1010.9
20260509221536 7 81 0.0 0.0 0.00 1.50 1.50 96 1010.9
20260509220103 7 108 0.0 0.0 0.00 1.50 1.50 96 1010.9
20260509214545 7 108 0.0 0.0 0.03 1.50 1.50 96 1011.0
20260509213035 7 108 0.0 0.0 0.03 1.50 1.50 96 1011.1
20260509211502 6 108 0.0 0.0 0.05 1.50 1.50 96 1011.3
20260509210112 6 107 0.0 0.0 0.05 1.50 1.50 96 1011.5
20260509204559 6 92 0.0 0.0 0.08 1.45 1.45 96 1011.8
20260509203040 6 92 0.0 0.0 0.13 1.45 1.45 96 1011.9
20260509201513 6 92 0.0 0.0 0.15 1.42 1.42 96 1012.0
20260509200109 6 91 0.0 0.0 0.20 1.42 1.42 96 1012.0
20260509194603 6 91 0.0 0.0 0.20 1.40 1.40 96 1012.1
20260509193052 6 94 0.0 0.0 0.25 1.35 1.35 96 1012.0
20260509191543 6 94 0.0 0.0 0.25 1.30 1.30 96 1012.0
20260509190017 6 94 0.0 0.0 0.25 1.24 1.24 96 1012.3
20260509184516 6 94 0.0 0.0 0.25 1.19 1.19 96 1012.4
20260509183133 5 94 0.0 0.0 0.23 1.12 1.12 96 1012.6
20260509181549 5 91 0.0 0.0 0.23 1.04 1.04 95 1012.7
20260509180045 5 78 0.0 0.0 0.25 0.99 0.99 95 1012.7
20260509174505 5 147 0.0 0.0 0.25 0.94 0.94 95 1012.9
20260509173105 6 134 0.0 0.0 0.25 0.89 0.89 95 1012.9
20260509171550 5 134 0.0 0.0 0.25 0.81 0.84 95 1013.0
20260509170020 5 130 0.0 0.0 0.20 0.71 0.71 95 1013.2
20260509164504 5 130 0.0 0.0 0.20 0.69 0.69 95 1013.2
20260509163045 5 131 0.0 0.0 0.20 0.64 0.64 95 1013.3
20260509161507 5 131 0.0 0.0 0.18 0.56 0.56 95 1013.6
20260509160109 5 83 0.0 0.0 0.23 0.53 0.53 95 1013.8
20260509154605 5 83 0.0 0.0 0.25 0.48 0.48 95 1014.1
20260509153021 5 252 0.0 0.0 0.25 0.43 0.43 96 1014.3
20260509151615 4 252 0.0 0.0 0.23 0.38 0.38 95 1014.4
20260509150108 5 108 0.0 0.0 0.15 0.30 0.30 96 1014.4
20260509144600 4 108 0.0 0.0 0.10 0.23 0.23 95 1014.5
20260509143035 4 108 0.0 0.0 0.05 0.18 0.18 95 1014.3